FW1340 Weather Reports


time (UTC)temp
F
wind
direction
speed
knots
gust
knots
rain 1hr
in
rain 24hr
in
rain mn
in
humidity
%
barometer
mb
20260503010013 69 267 0.0 0.0 0.00 0.00 0.00 60 1010.0
20260503004512 71 275 0.0 0.0 0.00 0.00 0.00 59 1010.0
20260503003023 72 312 0.0 0.0 0.00 0.00 0.00 58 1010.0
20260503001511 72 298 0.0 0.0 0.00 0.00 0.00 55 1009.9
20260503000016 72 284 0.0 0.0 0.00 0.00 0.00 56 1010.0
20260502234509 74 313 0.0 0.0 0.00 0.00 0.00 56 1010.1
20260502233007 73 268 0.0 0.0 0.00 0.00 0.00 56 1010.3
20260502231504 73 254 0.0 0.0 0.00 0.00 0.00 56 1010.4
20260502230003 73 270 0.0 0.0 0.00 0.00 0.00 56 1010.6
20260502224501 73 329 0.0 0.0 0.00 0.00 0.00 57 1010.8
20260502223107 73 305 0.0 0.0 0.00 0.00 0.00 58 1010.9
20260502221602 74 269 0.0 0.0 0.00 0.00 0.00 56 1011.1
20260502214613 74 256 0.0 0.0 0.00 0.00 0.00 56 1011.4
20260502213115 73 319 0.0 0.0 0.00 0.00 0.00 57 1011.7
20260502211554 73 229 0.0 0.0 0.00 0.00 0.00 59 1011.8
20260502210048 72 323 0.0 0.0 0.00 0.00 0.00 60 1012.1
20260502204544 71 267 0.0 0.0 0.00 0.00 0.00 59 1012.3
20260502203105 71 275 0.0 0.0 0.00 0.00 0.00 62 1012.4
20260502201541 69 254 0.0 0.0 0.00 0.00 0.00 66 1012.5
20260502200038 68 227 0.0 0.0 0.00 0.00 0.00 67 1012.7
20260502194531 66 245 0.0 0.0 0.00 0.00 0.00 68 1012.8
20260502193031 65 294 0.0 0.0 0.00 0.00 0.00 71 1012.9
20260502191532 64 285 0.0 0.0 0.00 0.00 0.00 72 1013.0
20260502190030 64 295 0.0 0.0 0.00 0.00 0.00 71 1013.1
20260502184529 65 272 0.0 0.0 0.00 0.00 0.00 69 1013.1
20260502183028 66 269 0.0 0.0 0.00 0.00 0.00 68 1013.1
20260502181526 66 315 0.0 0.0 0.00 0.00 0.00 69 1013.0
20260502163016 60 317 0.0 0.0 0.00 0.00 0.00 81 1012.7
20260502161505 59 268 0.0 0.0 0.00 0.00 0.00 83 1012.8
20260502151556 56 256 0.0 0.0 0.00 0.00 0.00 89 1012.4
20260502123041 53 269 0.0 0.0 0.00 0.00 0.00 90 1011.3
20260502121528 53 269 0.0 0.0 0.00 0.00 0.00 90 1011.4
20260502114524 53 269 0.0 0.0 0.00 0.00 0.00 90 1011.4
20260502113029 53 288 0.0 0.0 0.00 0.00 0.00 89 1011.6
20260502111521 53 281 0.0 0.0 0.00 0.00 0.00 88 1011.7
20260502110022 54 268 0.0 0.0 0.00 0.00 0.00 88 1011.5
20260502104521 54 268 0.0 0.0 0.00 0.00 0.00 87 1011.7
20260502103018 54 285 0.0 0.0 0.00 0.00 0.00 86 1011.6
20260502101516 54 280 0.0 0.0 0.00 0.00 0.00 86 1011.6
20260502091508 56 263 0.0 0.0 0.00 0.00 0.00 82 1011.8
20260502070105 59 266 0.0 0.0 0.00 0.00 0.00 81 1012.0
20260502064552 59 266 0.0 0.0 0.00 0.00 0.00 81 1012.1
20260502063050 60 266 0.0 0.0 0.00 0.00 0.00 81 1012.0
20260502061547 60 269 0.0 0.0 0.00 0.00 0.00 81 1011.8
20260502060051 60 267 0.0 0.0 0.00 0.00 0.00 80 1012.0
20260502054547 61 269 0.0 0.0 0.00 0.00 0.00 79 1012.0
20260502053051 62 263 0.0 0.0 0.00 0.00 0.00 78 1012.0
20260502051557 62 263 0.0 0.0 0.00 0.00 0.00 77 1012.0
20260502050046 63 261 0.0 0.0 0.00 0.00 0.00 76 1011.9
20260502044545 64 261 0.0 0.0 0.00 0.00 0.00 75 1011.9
20260502043046 65 252 0.0 0.0 0.00 0.00 0.00 74 1011.7
20260502041542 66 269 0.0 0.0 0.00 0.00 0.00 73 1011.6
20260502040042 67 256 0.0 0.0 0.00 0.00 0.00 70 1011.3
20260502034542 68 263 0.0 0.0 0.00 0.00 0.00 69 1011.1
20260502033040 69 250 0.0 0.0 0.00 0.00 0.00 68 1010.9
20260502031540 70 273 0.0 0.0 0.00 0.00 0.00 68 1010.8
20260502030045 71 257 0.0 0.0 0.00 0.00 0.00 66 1010.6
20260502024540 73 269 0.0 0.0 0.00 0.00 0.00 62 1010.5
20260502023039 75 263 0.0 0.0 0.00 0.00 0.00 58 1010.4
20260502021537 77 250 0.0 0.0 0.00 0.00 0.00 55 1010.4
20260502020037 78 253 0.0 0.0 0.00 0.00 0.00 52 1010.4
20260502014537 79 268 0.0 0.0 0.00 0.00 0.00 50 1010.4
20260502013036 80 286 0.0 0.0 0.00 0.00 0.00 48 1010.4
20260502011535 80 255 0.0 0.0 0.00 0.00 0.00 47 1010.3